sat.trackr.live / text

‹ back to catalog

STARLINK-32226

NORAD 60426 · 2024-144B

PAYLOAD ACTIVE UNKNOWN

§ Identity

Operator
Country
US
Launch date
2024-08-12
Launch site
AFETR
Launch vehicle
Mass (kg)
RCS (m²)

Purposes: comms

External: N2YO · Heavens-Above · Gunter

§ Orbital elements

Epoch: 2026-05-25T05:25:15.538656Z

Period
94.11 min
Inclination
53.1596°
Eccentricity
0.0000980
Mean motion
15.30204261 rev/d
Perigee alt
474.5 km
Apogee alt
475.9 km
Semi-major
6,853.3 km
B*
-4.2901e-5
RAAN
221.8820°
Arg perigee
77.6946°
Mean anomaly
282.4164°
Rev number
10,102

§ Raw data

STARLINK-322261 60426U 24144B   26145.22587429 -.00001629  00000+0 -42901-4 0  99992 60426  53.1596 221.8820 0000980  77.6946 282.4164 15.30204261101023

JSON: /api/v1/satellites/60426 · /tle

For live sub-satellite position, see the globe view (requires WebGL).

§ Visibility from observer

Set your observer location to see the next 7 days of passes ≥ 10°. The values pass through the URL so the page stays shareable.

No JS? Fill the form by hand. The geolocation button needs JavaScript.